KO6TH-15 Weather Reports


time (UTC)temp
C
wind
direction
speed
KPH
gust
KPH
rain 1hr
cm
rain 24hr
cm
rain mn
cm
humidity
%
barometer
mb
20260503192050 15 0 6.4 0.0 0.00 0.00 0.00 77
20260503191050 16 0 8.0 0.0 0.00 0.00 0.00 76
20260503190020 16 0 14.5 0.0 0.00 0.00 0.00 75
20260503184950 16 0 4.8 0.0 0.00 0.00 0.00 78
20260503183920 16 0 8.0 0.0 0.00 0.00 0.00 77
20260503182850 15 0 3.2 0.0 0.00 0.00 0.00 81
20260503181850 15 0 4.8 0.0 0.00 0.00 0.00 81
20260503180820 15 0 3.2 0.0 0.00 0.00 0.00 82
20260503175750 14 0 11.3 0.0 0.00 0.00 0.00 86
20260503174720 13 0 4.8 0.0 0.00 0.00 0.00 91
20260503173650 12 0 1.6 0.0 0.00 0.00 0.00 93
20260503172620 12 0 4.8 0.0 0.00 0.00 0.00 91
20260503171550 13 0 1.6 0.0 0.00 0.00 0.00 83
20260503170520 13 0 6.4 0.0 0.00 0.00 0.00 82
20260503130620 10 0 1.6 0.0 0.00 0.00 0.00 98
20260503081350 12 0 0.0 0.0 0.00 0.00 0.00 97
20260503080712 12 0 0.0 0.0 0.00 0.00 0.00 97
20260503080350 12 0 0.0 0.0 0.00 0.00 0.00 97
20260503072250 12 0 0.0 0.0 0.00 0.00 0.00 94
20260503071250 12 0 0.0 0.0 0.00 0.00 0.00 94
20260503070220 12 0 0.0 0.0 0.00 0.00 0.00 93
20260503054850 14 0 0.0 0.0 0.00 0.00 0.00 88
20260503053850 14 0 0.0 0.0 0.00 0.00 0.00 87
20260503052820 15 0 0.0 0.0 0.00 0.00 0.00 87
20260503051750 15 0 0.0 0.0 0.00 0.00 0.00 87
20260503050720 15 0 0.0 0.0 0.00 0.00 0.00 86
20260503045650 15 0 0.0 0.0 0.00 0.00 0.00 85
20260503044620 15 0 0.0 0.0 0.00 0.00 0.00 84
20260503043550 16 0 0.0 0.0 0.00 0.00 0.00 82
20260503042520 16 0 0.0 0.0 0.00 0.00 0.00 81
20260503041450 16 0 0.0 0.0 0.00 0.00 0.00 81
20260503040606 16 0 0.0 0.0 0.00 0.00 0.00 79
20260503040420 16 0 0.0 0.0 0.00 0.00 0.00 79
20260503035350 17 0 0.0 0.0 0.00 0.00 0.00 78
20260503034320 17 0 0.0 0.0 0.00 0.00 0.00 77
20260503033250 17 0 0.0 0.0 0.00 0.00 0.00 76
20260503032220 18 0 0.0 0.0 0.00 0.00 0.00 74
20260503031150 18 0 0.0 0.0 0.00 0.00 0.00 73
20260503030120 19 0 0.0 0.0 0.00 0.00 0.00 74
20260503025050 19 0 3.2 0.0 0.00 0.00 0.00 71
20260503024020 20 0 1.6 0.0 0.00 0.00 0.00 68
20260503023125 20 0 1.6 0.0 0.00 0.00 0.00 67
20260503023020 20 0 1.6 0.0 0.00 0.00 0.00 67
20260503021950 21 0 3.2 0.0 0.00 0.00 0.00 65
20260503020920 21 0 0.0 0.0 0.00 0.00 0.00 64
20260503015850 21 0 1.6 0.0 0.00 0.00 0.00 63
20260503014850 22 0 1.6 0.0 0.00 0.00 0.00 62
20260503013820 22 0 0.0 0.0 0.00 0.00 0.00 61
20260503013230 22 0 1.6 0.0 0.00 0.00 0.00 60
20260503012750 22 0 1.6 0.0 0.00 0.00 0.00 60
20260503011720 22 0 0.0 0.0 0.00 0.00 0.00 59
20260503010650 22 0 1.6 0.0 0.00 0.00 0.00 59
20260503005620 22 0 1.6 0.0 0.00 0.00 0.00 58
20260503004550 23 0 1.6 0.0 0.00 0.00 0.00 57
20260503003812 23 0 6.4 0.0 0.00 0.00 0.00 56
20260503003520 23 0 6.4 0.0 0.00 0.00 0.00 56
20260503002553 23 0 1.6 0.0 0.00 0.00 0.00 57
20260503002450 23 0 1.6 0.0 0.00 0.00 0.00 57
20260503001420 23 0 4.8 0.0 0.00 0.00 0.00 56
20260503000350 24 0 1.6 0.0 0.00 0.00 0.00 54
20260502235320 25 0 3.2 0.0 0.00 0.00 0.00 54
20260502234320 25 0 3.2 0.0 0.00 0.00 0.00 53
20260502233250 25 0 3.2 0.0 0.00 0.00 0.00 51
20260502232220 26 0 4.8 0.0 0.00 0.00 0.00 50
20260502231150 26 0 4.8 0.0 0.00 0.00 0.00 49
20260502230403 26 0 4.8 0.0 0.00 0.00 0.00 49
20260502230150 26 0 4.8 0.0 0.00 0.00 0.00 49
20260502225120 27 0 4.8 0.0 0.00 0.00 0.00 48
20260502224050 26 0 4.8 0.0 0.00 0.00 0.00 47
20260502223050 26 0 6.4 0.0 0.00 0.00 0.00 46
20260502222020 26 0 3.2 0.0 0.00 0.00 0.00 45
20260502220950 25 0 3.2 0.0 0.00 0.00 0.00 47
20260502215920 25 0 4.8 0.0 0.00 0.00 0.00 46
20260502214920 25 0 1.6 0.0 0.00 0.00 0.00 44
20260502213850 25 0 6.4 0.0 0.00 0.00 0.00 43
20260502212820 26 0 6.4 0.0 0.00 0.00 0.00 41
20260502211750 26 0 3.2 0.0 0.00 0.00 0.00 42
20260502210720 26 0 4.8 0.0 0.00 0.00 0.00 41
20260502205650 25 0 4.8 0.0 0.00 0.00 0.00 41
20260502204620 25 0 3.2 0.0 0.00 0.00 0.00 44
20260502203550 24 0 3.2 0.0 0.00 0.00 0.00 40
20260502202520 25 0 8.0 0.0 0.00 0.00 0.00 44
20260502201520 24 0 6.4 0.0 0.00 0.00 0.00 42
20260502200450 23 0 0.0 0.0 0.00 0.00 0.00 42
20260502195420 24 0 3.2 0.0 0.00 0.00 0.00 44
20260502194420 23 0 4.8 0.0 0.00 0.00 0.00 47
20260502193350 23 0 0.0 0.0 0.00 0.00 0.00 49